Time,TemperatureF,DewpointF,PressureIn,WindDirection,WindDirectionDegrees,WindSpeedMPH,WindSpeedGustMPH,Humidity,HourlyPrecipIn,Conditions,Clouds,dailyrainin,SoftwareType,DateUTC
2015-03-03 00:01:00,45.1,39.6,30.30,WSW,240,1.0,2.0,81,0.00,,---,0.00,VWS V14.01,2015-03-03 05:01:00,
2015-03-03 00:06:00,45.0,39.2,30.30,WSW,240,0.0,2.0,80,0.00,,---,0.00,VWS V14.01,2015-03-03 05:06:00,
2015-03-03 00:11:00,45.0,39.2,30.30,WSW,240,1.0,2.0,80,0.00,,---,0.00,VWS V14.01,2015-03-03 05:11:00,
2015-03-03 00:16:00,45.0,39.2,30.29,WSW,240,2.0,2.0,80,0.00,,---,0.00,VWS V14.01,2015-03-03 05:16:00,
2015-03-03 00:21:00,45.0,38.9,30.29,WSW,240,0.0,2.0,79,0.00,,---,0.00,VWS V14.01,2015-03-03 05:21:00,
2015-03-03 00:26:00,44.9,38.8,30.29,WSW,238,0.0,3.0,79,0.00,,---,0.00,VWS V14.01,2015-03-03 05:26:00,
2015-03-03 00:31:00,44.9,39.1,30.30,WSW,238,0.0,0.0,80,0.00,,---,0.00,VWS V14.01,2015-03-03 05:31:00,
2015-03-03 00:36:00,44.8,39.0,30.29,WSW,237,0.0,0.0,80,0.00,,---,0.00,VWS V14.01,2015-03-03 05:36:00,
2015-03-03 00:41:00,44.8,39.7,30.29,WSW,237,0.0,1.0,82,0.00,,---,0.00,VWS V14.01,2015-03-03 05:41:00,
2015-03-03 00:46:00,44.7,39.2,30.28,WSW,238,0.0,2.0,81,0.00,,---,0.00,VWS V14.01,2015-03-03 05:46:00,
2015-03-03 00:52:00,44.7,38.6,30.28,WSW,238,0.0,4.0,79,0.00,,---,0.00,VWS V14.01,2015-03-03 05:52:00,
2015-03-03 00:57:00,44.7,38.3,30.28,WSW,237,0.0,4.0,78,0.00,,---,0.00,VWS V14.01,2015-03-03 05:57:00,
2015-03-03 01:02:00,44.7,38.6,30.27,WSW,237,0.0,1.0,79,0.00,,---,0.00,VWS V14.01,2015-03-03 06:02:00,
2015-03-03 01:07:00,44.7,38.9,30.28,WSW,237,0.0,1.0,80,0.00,,---,0.00,VWS V14.01,2015-03-03 06:07:00,
2015-03-03 01:12:00,44.7,38.6,30.28,WSW,237,0.0,2.0,79,0.00,,---,0.00,VWS V14.01,2015-03-03 06:12:00,
2015-03-03 01:17:00,44.7,38.6,30.28,WSW,238,0.0,2.0,79,0.00,,---,0.00,VWS V14.01,2015-03-03 06:17:00,
2015-03-03 01:22:00,44.7,38.3,30.28,WSW,238,0.0,2.0,78,0.00,,---,0.00,VWS V14.01,2015-03-03 06:22:00,
2015-03-03 01:27:00,44.7,38.3,30.28,WSW,238,1.0,2.0,78,0.00,,---,0.00,VWS V14.01,2015-03-03 06:27:00,
2015-03-03 01:32:00,44.7,38.3,30.28,WSW,238,1.0,2.0,78,0.00,,---,0.00,VWS V14.01,2015-03-03 06:32:00,
2015-03-03 01:37:00,44.8,38.7,30.28,WSW,237,1.0,2.0,79,0.00,,---,0.00,VWS V14.01,2015-03-03 06:37:00,
2015-03-03 01:42:00,44.9,38.8,30.28,WSW,238,0.0,2.0,79,0.00,,---,0.00,VWS V14.01,2015-03-03 06:42:00,
2015-03-03 01:47:00,44.9,38.8,30.27,WSW,238,1.0,2.0,79,0.00,,---,0.00,VWS V14.01,2015-03-03 06:47:00,
2015-03-03 01:52:00,44.9,38.8,30.27,WSW,238,0.0,2.0,79,0.00,,---,0.00,VWS V14.01,2015-03-03 06:52:00,
2015-03-03 01:57:00,44.9,38.5,30.28,WSW,237,0.0,2.0,78,0.00,,---,0.00,VWS V14.01,2015-03-03 06:57:00,
2015-03-03 02:02:00,44.9,38.5,30.27,WSW,238,1.0,1.0,78,0.00,,---,0.00,VWS V14.01,2015-03-03 07:02:00,
2015-03-03 02:07:00,44.9,38.8,30.27,WSW,238,0.0,2.0,79,0.00,,---,0.00,VWS V14.01,2015-03-03 07:07:00,
2015-03-03 02:12:00,45.0,38.9,30.27,WSW,238,0.0,2.0,79,0.00,,---,0.00,VWS V14.01,2015-03-03 07:12:00,
2015-03-03 02:17:00,45.0,38.9,30.26,WSW,237,0.0,2.0,79,0.00,,---,0.00,VWS V14.01,2015-03-03 07:17:00,
2015-03-03 02:22:00,45.0,38.9,30.26,WSW,257,1.0,3.0,79,0.00,,---,0.00,VWS V14.01,2015-03-03 07:22:00,
2015-03-03 02:27:00,45.0,38.9,30.26,WSW,257,0.0,3.0,79,0.00,,---,0.00,VWS V14.01,2015-03-03 07:27:00,
2015-03-03 02:32:00,45.0,39.2,30.26,WSW,256,1.0,1.0,80,0.00,,---,0.00,VWS V14.01,2015-03-03 07:32:00,
2015-03-03 02:37:00,45.0,39.2,30.26,WSW,257,0.0,2.0,80,0.00,,---,0.00,VWS V14.01,2015-03-03 07:37:00,
2015-03-03 02:42:00,45.0,38.9,30.26,WSW,257,0.0,2.0,79,0.00,,---,0.00,VWS V14.01,2015-03-03 07:42:00,
2015-03-03 02:47:00,45.0,39.2,30.26,WSW,257,0.0,2.0,80,0.00,,---,0.00,VWS V14.01,2015-03-03 07:47:00,
2015-03-03 02:52:00,45.0,39.2,30.27,WSW,257,0.0,2.0,80,0.00,,---,0.00,VWS V14.01,2015-03-03 07:52:00,
2015-03-03 02:57:00,45.0,39.2,30.26,WSW,257,1.0,2.0,80,0.00,,---,0.00,VWS V14.01,2015-03-03 07:57:00,
2015-03-03 03:02:00,45.0,39.2,30.26,WSW,256,0.0,1.0,80,0.00,,---,0.00,VWS V14.01,2015-03-03 08:02:00,
2015-03-03 03:07:00,45.0,39.2,30.26,WSW,256,1.0,1.0,80,0.00,,---,0.00,VWS V14.01,2015-03-03 08:07:00,
2015-03-03 03:12:00,45.0,39.2,30.26,WSW,257,0.0,2.0,80,0.00,,---,0.00,VWS V14.01,2015-03-03 08:12:00,
2015-03-03 03:17:00,45.0,39.2,30.26,WSW,257,1.0,2.0,80,0.00,,---,0.00,VWS V14.01,2015-03-03 08:17:00,
2015-03-03 03:22:00,45.0,39.2,30.26,WSW,257,0.0,2.0,80,0.00,,---,0.00,VWS V14.01,2015-03-03 08:22:00,
2015-03-03 03:27:00,45.0,39.2,30.26,WSW,257,1.0,2.0,80,0.00,,---,0.00,VWS V14.01,2015-03-03 08:27:00,
2015-03-03 03:32:00,45.0,39.2,30.26,WSW,257,1.0,1.0,80,0.00,,---,0.00,VWS V14.01,2015-03-03 08:32:00,
2015-03-03 03:37:00,45.0,39.2,30.25,WSW,256,0.0,1.0,80,0.00,,---,0.00,VWS V14.01,2015-03-03 08:37:00,
2015-03-03 03:42:00,44.9,39.1,30.26,WSW,257,0.0,1.0,80,0.00,,---,0.00,VWS V14.01,2015-03-03 08:42:00,
2015-03-03 03:47:00,44.9,39.1,30.26,WSW,257,0.0,1.0,80,0.00,,---,0.00,VWS V14.01,2015-03-03 08:47:00,
2015-03-03 03:52:00,44.9,39.1,30.25,WSW,257,0.0,1.0,80,0.00,,---,0.00,VWS V14.01,2015-03-03 08:52:00,
2015-03-03 03:57:00,44.9,39.4,30.25,WSW,257,0.0,2.0,81,0.00,,---,0.00,VWS V14.01,2015-03-03 08:57:00,
2015-03-03 04:02:00,44.9,39.1,30.26,WSW,257,0.0,0.0,80,0.00,,---,0.00,VWS V14.01,2015-03-03 09:02:00,
2015-03-03 04:07:00,44.9,39.1,30.26,WSW,257,0.0,1.0,80,0.00,,---,0.00,VWS V14.01,2015-03-03 09:07:00,
2015-03-03 04:12:00,44.9,39.4,30.25,WSW,257,1.0,1.0,81,0.00,,---,0.00,VWS V14.01,2015-03-03 09:12:00,
2015-03-03 04:17:00,44.9,39.4,30.25,WSW,257,0.0,1.0,81,0.00,,---,0.00,VWS V14.01,2015-03-03 09:17:00,
2015-03-03 04:22:00,45.0,39.8,30.25,WSW,256,0.0,1.0,82,0.00,,---,0.00,VWS V14.01,2015-03-03 09:22:00,
2015-03-03 04:27:00,45.0,39.5,30.25,WSW,257,0.0,1.0,81,0.00,,---,0.00,VWS V14.01,2015-03-03 09:27:00,
2015-03-03 04:32:00,45.0,39.5,30.25,WSW,257,1.0,1.0,81,0.00,,---,0.00,VWS V14.01,2015-03-03 09:32:00,
2015-03-03 04:37:00,45.0,39.5,30.25,WSW,257,0.0,1.0,81,0.00,,---,0.00,VWS V14.01,2015-03-03 09:37:00,
2015-03-03 04:42:00,45.0,39.5,30.24,WSW,256,0.0,1.0,81,0.00,,---,0.00,VWS V14.01,2015-03-03 09:42:00,